Lincoln City Weather Center

Moon Phase Calendar



Online Cameras

 


      

Current Conditions in Lincoln City
10/28/2020 4:50:53 PM

58°F
Feels Like 54
Clear
Humidity
84%
Pressure
30.12"
Wind
10 mph (NNW)
Dew Point
54°F
UV Index
3/10 (Moderate)
Visibility
6 mi

Hourly Forecast

Date & Time Wed, Oct 28
4:00 PM
Wed, Oct 28
5:00 PM
Wed, Oct 28
6:00 PM
Wed, Oct 28
7:00 PM
Wed, Oct 28
8:00 PM
Wed, Oct 28
9:00 PM
Wed, Oct 28
10:00 PM
Wed, Oct 28
11:00 PM
Thu, Oct 29
12:00 AM
Thu, Oct 29
1:00 AM
Thu, Oct 29
2:00 AM
Thu, Oct 29
3:00 AM
Thu, Oct 29
4:00 AM
Thu, Oct 29
5:00 AM
Thu, Oct 29
6:00 AM
Thu, Oct 29
7:00 AM
Thu, Oct 29
8:00 AM
Thu, Oct 29
9:00 AM
Thu, Oct 29
10:00 AM
Thu, Oct 29
11:00 AM
Thu, Oct 29
12:00 PM
Thu, Oct 29
1:00 PM
Thu, Oct 29
2:00 PM
Thu, Oct 29
3:00 PM
Thu, Oct 29
4:00 PM
Thu, Oct 29
5:00 PM
Thu, Oct 29
6:00 PM
Thu, Oct 29
7:00 PM
Thu, Oct 29
8:00 PM
Thu, Oct 29
9:00 PM
Thu, Oct 29
10:00 PM
Thu, Oct 29
11:00 PM
Fri, Oct 30
12:00 AM
Fri, Oct 30
1:00 AM
Fri, Oct 30
2:00 AM
Fri, Oct 30
3:00 AM
Fri, Oct 30
4:00 AM
Fri, Oct 30
5:00 AM
Fri, Oct 30
6:00 AM
Fri, Oct 30
7:00 AM
Fri, Oct 30
8:00 AM
Fri, Oct 30
9:00 AM
Fri, Oct 30
10:00 AM
Fri, Oct 30
11:00 AM
Fri, Oct 30
12:00 PM
Fri, Oct 30
1:00 PM
Fri, Oct 30
2:00 PM
Fri, Oct 30
3:00 PM
Condition
Clear

Clear

Clear

Clear

Clear

Clear

Clear

Clear

Clear

Clear

Clear

Clear

Clear

Clear

Clear

Clear

Clear

Clear

Clear

Clear

Clear

Clear

Clear

Clear

Clear

Clear

Clear

Clear

Clear

Clear

Clear

Clear

Clear

Clouds

Clouds

Clouds

Clouds

Clouds

Clouds

Clouds

Rain

Rain

Rain

Rain

Clouds

Clouds

Clouds

Clouds
Temperature 58°F59°F56°F54°F53°F53°F53°F53°F53°F52°F52°F52°F51°F51°F51°F51°F50°F53°F57°F60°F61°F61°F61°F59°F58°F56°F53°F51°F50°F50°F49°F49°F48°F48°F48°F49°F51°F52°F51°F51°F52°F52°F52°F53°F54°F55°F56°F56°F
Feels Like 55°F55°F52°F50°F49°F50°F50°F50°F50°F50°F50°F49°F49°F49°F49°F48°F48°F51°F56°F58°F58°F58°F57°F56°F54°F52°F49°F47°F47°F46°F46°F46°F46°F46°F46°F46°F47°F47°F46°F45°F46°F47°F48°F49°F53°F52°F52°F51°F
Cloudiness 0%0%0%0%0%0%0%0%0%0%0%0%0%0%0%0%0%0%0%0%0%0%0%0%0%0%0%0%0%0%0%0%0%43%62%71%77%81%61%71%78%84%87%90%100%100%92%94%
Visibility 6 mi6 mi6 mi6 mi6 mi6 mi6 mi6 mi6 mi6 mi6 mi6 mi6 mi6 mi6 mi6 mi6 mi6 mi6 mi6 mi6 mi6 mi6 mi6 mi6 mi6 mi6 mi6 mi6 mi6 mi6 mi6 mi6 mi6 mi6 mi6 mi6 mi6 mi6 mi6 mi6 mi6 mi5 mi3 mi4 mi6 mi6 mi6 mi
Precipitation 0%0%0%0%0%0%0%0%0%0%0%0%0%0%0%0%0%0%0%0%0%0%0%0%0%0%0%0%0%0%0%0%0%0%0%0%0%0%0%15%43%67%87%87%4%4%0%0%
Humidity 84%80%87%91%91%91%90%89%89%89%89%89%89%89%90%90%90%86%79%72%68%68%70%74%77%80%87%89%89%89%89%89%89%88%88%88%86%86%89%90%89%91%93%94%92%85%78%73%
Dew Point 54°F53°F52°F51°F50°F50°F50°F50°F50°F49°F49°F49°F49°F48°F48°F48°F48°F49°F50°F51°F50°F51°F51°F51°F51°F50°F49°F48°F48°F47°F46°F46°F45°F45°F45°F45°F47°F48°F48°F48°F49°F49°F50°F51°F52°F50°F49°F47°F
Pressure 30.12"30.12"30.15"30.18"30.18"30.18"30.18"30.18"30.18"30.18"30.18"30.18"30.18"30.18"30.18"30.18"30.18"30.15"30.15"30.15"30.12"30.12"30.09"30.09"30.06"30.06"30.06"30.09"30.09"30.09"30.09"30.09"30.09"30.09"30.09"30.09"30.06"30.06"30.06"30.09"30.09"30.12"30.12"30.15"30.15"30.18"30.18"30.18"
Wind Speed 8.1 mph7.6 mph8 mph7.9 mph6.6 mph5.7 mph4.7 mph4.1 mph3.6 mph3.3 mph3.5 mph3.7 mph3.6 mph3.6 mph3.4 mph3.2 mph3.2 mph2.6 mph1.4 mph2.3 mph4.6 mph5.6 mph6.5 mph7.4 mph8 mph7.2 mph6.5 mph5.8 mph5.5 mph4.9 mph4 mph3.3 mph2.2 mph1.8 mph1.8 mph2.3 mph5 mph6.6 mph7.2 mph9.4 mph10 mph8.1 mph7.4 mph8.2 mph3.2 mph4.4 mph6.4 mph7.4 mph
Wind
Direction
346°
NNW
353°
N
358°
N

N
23°
NNE
27°
NNE
38°
NE
41°
NE
41°
NE
42°
NE
37°
NE
36°
NE
44°
NE
48°
NE
55°
NE
54°
NE
67°
ENE
74°
ENE
53°
NE
335°
NNW
331°
NNW
332°
NNW
334°
NNW
340°
NNW
349°
N
356°
N

N

N

N

N
16°
NNE
16°
NNE
31°
NNE
85°
E
121°
ESE
150°
SSE
150°
SSE
156°
SSE
164°
SSE
164°
SSE
172°
S
188°
S
201°
SSW
218°
SW
247°
WSW

N
360°
N
350°
N

Daily Forecast

Date High Low Precip. Humidity
Today
Oct 28

Clear
59 °F
48 °F
0%
62%
Thursday
Oct 29

Clear
61 °F
49 °F
0%
72%
Friday
Oct 30

Rain
56 °F
46 °F
87%
94%
Saturday
Oct 31

Clouds
56 °F
43 °F
0%
61%
Sunday
Nov 1

Clear
61 °F
46 °F
0%
49%
Monday
Nov 2

Clear
60 °F
48 °F
0%
55%
Tuesday
Nov 3

Rain
57 °F
53 °F
99%
88%
Wednesday
Nov 4

Rain
57 °F
51 °F
100%
95%
Thursday
Nov 5

Rain
55 °F
49 °F
100%
78%
Friday
Nov 6

Rain
49 °F
41 °F
88%
69%
Saturday
Nov 7

Clear
49 °F
36 °F
0%
62%
Sunday
Nov 8

Rain
49 °F
41 °F
57%
70%
Monday
Nov 9

Clear
46 °F
34 °F
0%
55%
Tuesday
Nov 10

Clouds
47 °F
34 °F
0%
50%
Wednesday
Nov 11

Rain
50 °F
39 °F
83%
48%
Thursday
Nov 12

Rain
54 °F
46 °F
100%
79%


Temperature 8-14 Day Outlook



Precipitation 8-14 Day Outlook




Quick Links
Lincoln City News
Lincoln City Photos
Lincoln City Videos




About Us
Contact Us
Site Map
Search Site
Advertise With Us
   
LincolnCity.USCoast.info
THE LINCOLN CITY WEBSITE

Copyright 2020, Coastal Town
Privacy    |    Legal